Météo par heure à Jurgi

Ce jour, 17 Juin, Jeudi

Heure Température Précipitation Vent Pression Humidité
00:00 +14°C° 0 mm 2 m/s 757 mmHg 80%
01:00 +13°C° 0 mm 2 m/s 757 mmHg 82%
02:00 +13°C° 0 mm 2 m/s 757 mmHg 83%
03:00 +13°C° 0 mm 2 m/s 757 mmHg 84%
04:00 +13°C° 0 mm 2 m/s 757 mmHg 85%
05:00 +15°C° 0 mm 2 m/s 757 mmHg 79%
06:00 +17°C° 0 mm 2 m/s 757 mmHg 73%
07:00 +19°C° 0 mm 3 m/s 758 mmHg 67%
08:00 +21°C° 0 mm 3 m/s 758 mmHg 61%
09:00 +22°C° 0 mm 3 m/s 758 mmHg 56%
10:00 +25°C° 0 mm 4 m/s 758 mmHg 50%
11:00 +25°C° 0 mm 4 m/s 758 mmHg 47%
12:00 +26°C° 0 mm 3 m/s 758 mmHg 45%
13:00 +27°C° 0 mm 3 m/s 758 mmHg 42%
14:00 +27°C° 0 mm 3 m/s 758 mmHg 44%
15:00 +27°C° 0 mm 3 m/s 758 mmHg 45%
16:00 +27°C° 0 mm 3 m/s 757 mmHg 47%
17:00 +25°C° 0 mm 3 m/s 757 mmHg 55%
18:00 +24°C° 0 mm 3 m/s 757 mmHg 63%
19:00 +23°C° 0 mm 2 m/s 757 mmHg 71%
20:00 +20°C° 0 mm 2 m/s 758 mmHg 75%
21:00 +19°C° 0 mm 3 m/s 758 mmHg 78%
22:00 +18°C° 0 mm 3 m/s 758 mmHg 81%
23:00 +17°C° 0 mm 3 m/s 758 mmHg 83%

Demain, 18 Juin, Vendredi

Heure Température Précipitation Vent Pression Humidité
00:00 +17°C° 0 mm 3 m/s 758 mmHg 85%
01:00 +16°C° 0 mm 3 m/s 758 mmHg 87%
02:00 +16°C° 0 mm 3 m/s 758 mmHg 88%
03:00 +16°C° 0 mm 3 m/s 758 mmHg 89%
04:00 +16°C° 0 mm 3 m/s 758 mmHg 90%
05:00 +18°C° 0 mm 3 m/s 758 mmHg 84%
06:00 +20°C° 0 mm 3 m/s 758 mmHg 78%
07:00 +22°C° 0 mm 3 m/s 758 mmHg 71%
08:00 +25°C° 0 mm 4 m/s 758 mmHg 67%
09:00 +26°C° 0 mm 5 m/s 758 mmHg 62%
10:00 +27°C° 0 mm 5 m/s 757 mmHg 57%
11:00 +28°C° 0 mm 5 m/s 757 mmHg 55%
12:00 +28°C° 0 mm 5 m/s 757 mmHg 53%
13:00 +29°C° 0 mm 5 m/s 757 mmHg 50%
14:00 +29°C° 0 mm 4 m/s 757 mmHg 51%
15:00 +29°C° 0 mm 4 m/s 756 mmHg 51%
16:00 +29°C° 0 mm 4 m/s 756 mmHg 52%
17:00 +27°C° 0 mm 4 m/s 756 mmHg 59%
18:00 +26°C° 0 mm 3 m/s 756 mmHg 66%
19:00 +24°C° 0 mm 3 m/s 756 mmHg 73%
20:00 +22°C° 0 mm 3 m/s 756 mmHg 77%
21:00 +21°C° 0 mm 3 m/s 756 mmHg 81%
22:00 +20°C° 0 mm 3 m/s 757 mmHg 85%
23:00 +19°C° 0 mm 3 m/s 757 mmHg 86%

Après-demain, 19 Juin, Samedi

Heure Température Précipitation Vent Pression Humidité
00:00 +19°C° 0 mm 3 m/s 756 mmHg 88%
01:00 +18°C° 0 mm 3 m/s 756 mmHg 89%
02:00 +18°C° 0 mm 3 m/s 756 mmHg 89%
03:00 +18°C° 0 mm 3 m/s 756 mmHg 89%
04:00 +18°C° 0 mm 3 m/s 756 mmHg 89%
05:00 +20°C° 0 mm 3 m/s 756 mmHg 84%
06:00 +22°C° 0 mm 3 m/s 756 mmHg 80%
07:00 +23°C° 0 mm 4 m/s 756 mmHg 75%
08:00 +26°C° 0 mm 4 m/s 756 mmHg 70%
09:00 +27°C° 0 mm 5 m/s 756 mmHg 65%
10:00 +28°C° 0 mm 5 m/s 756 mmHg 61%
11:00 +29°C° 0 mm 5 m/s 756 mmHg 58%
12:00 +29°C° 0 mm 5 m/s 755 mmHg 55%
13:00 +30°C° 0 mm 5 m/s 755 mmHg 52%
14:00 +30°C° 0 mm 4 m/s 755 mmHg 53%
15:00 +30°C° 0 mm 4 m/s 755 mmHg 53%
16:00 +30°C° 0 mm 4 m/s 755 mmHg 54%
17:00 +29°C° 0 mm 4 m/s 755 mmHg 61%
18:00 +27°C° 0 mm 3 m/s 754 mmHg 68%
19:00 +26°C° 0 mm 3 m/s 754 mmHg 74%
20:00 +25°C° 0 mm 3 m/s 755 mmHg 78%
21:00 +22°C° 0 mm 3 m/s 755 mmHg 82%
22:00 +21°C° 0 mm 3 m/s 755 mmHg 86%
23:00 +21°C° 0 mm 3 m/s 755 mmHg 87%

20 Juin, Dimanche

Heure Température Précipitation Vent Pression Humidité
00:00 +20°C° 0 mm 3 m/s 755 mmHg 89%
01:00 +20°C° 0 mm 2 m/s 755 mmHg 90%
02:00 +19°C° 0 mm 2 m/s 755 mmHg 91%
03:00 +19°C° 0 mm 2 m/s 755 mmHg 91%
04:00 +19°C° 0 mm 2 m/s 755 mmHg 92%
05:00 +20°C° 0 mm 3 m/s 755 mmHg 85%
06:00 +22°C° 0 mm 3 m/s 755 mmHg 78%
07:00 +23°C° 0 mm 4 m/s 755 mmHg 72%
08:00 +26°C° 0 mm 4 m/s 754 mmHg 68%
09:00 +27°C° 0 mm 5 m/s 754 mmHg 64%
10:00 +28°C° 0 mm 5 m/s 754 mmHg 60%
11:00 +28°C° 0 mm 5 m/s 754 mmHg 58%
12:00 +28°C° 0 mm 5 m/s 753 mmHg 57%
13:00 +29°C° 0 mm 4 m/s 753 mmHg 56%
14:00 +28°C° 0 mm 4 m/s 753 mmHg 57%
15:00 +28°C° 0 mm 4 m/s 753 mmHg 59%
16:00 +28°C° 0 mm 4 m/s 752 mmHg 61%
17:00 +27°C° 0 mm 4 m/s 752 mmHg 65%
18:00 +26°C° 0 mm 3 m/s 752 mmHg 69%
19:00 +25°C° 0 mm 3 m/s 752 mmHg 74%
20:00 +24°C° 0 mm 3 m/s 752 mmHg 78%
21:00 +22°C° 0 mm 3 m/s 752 mmHg 82%
22:00 +21°C° 0 mm 3 m/s 752 mmHg 86%
23:00 +21°C° 0 mm 3 m/s 752 mmHg 89%

21 Juin, Lundi

Heure Température Précipitation Vent Pression Humidité
00:00 +20°C° 0 mm 3 m/s 751 mmHg 92%
01:00 +20°C° 0 mm 3 m/s 751 mmHg 95%
02:00 +19°C° 0 mm 3 m/s 751 mmHg 95%
03:00 +19°C° 0 mm 3 m/s 751 mmHg 94%
04:00 +19°C° 0 mm 3 m/s 751 mmHg 94%
05:00 +21°C° 0 mm 4 m/s 751 mmHg 87%
06:00 +22°C° 0 mm 4 m/s 751 mmHg 80%
07:00 +25°C° 0 mm 5 m/s 751 mmHg 74%
08:00 +26°C° 0 mm 6 m/s 751 mmHg 67%
09:00 +27°C° 0 mm 6 m/s 751 mmHg 61%
10:00 +28°C° 0 mm 6 m/s 751 mmHg 55%
11:00 +29°C° 0 mm 6 m/s 750 mmHg 53%
12:00 +29°C° 0 mm 6 m/s 750 mmHg 51%
13:00 +30°C° 0 mm 6 m/s 750 mmHg 49%
14:00 +30°C° 0 mm 5 m/s 750 mmHg 50%
15:00 +30°C° 0 mm 5 m/s 750 mmHg 51%
16:00 +30°C° 0 mm 5 m/s 749 mmHg 51%
17:00 +29°C° 0 mm 4 m/s 749 mmHg 58%
18:00 +27°C° 0 mm 4 m/s 749 mmHg 65%
19:00 +26°C° 0 mm 4 m/s 749 mmHg 71%
20:00 +25°C° 0 mm 3 m/s 749 mmHg 73%
21:00 +24°C° 0 mm 3 m/s 749 mmHg 75%
22:00 +23°C° 0 mm 2 m/s 749 mmHg 77%
23:00 +23°C° 0 mm 2 m/s 749 mmHg 80%

22 Juin, Mardi

Heure Température Précipitation Vent Pression Humidité
00:00 +21°C° 0 mm 2 m/s 748 mmHg 83%
01:00 +20°C° 0 mm 3 m/s 748 mmHg 86%
02:00 +20°C° 0 mm 3 m/s 748 mmHg 88%
03:00 +20°C° 0 mm 3 m/s 748 mmHg 90%
04:00 +19°C° 0 mm 3 m/s 748 mmHg 92%
05:00 +21°C° 0 mm 3 m/s 748 mmHg 85%
06:00 +23°C° 0 mm 4 m/s 748 mmHg 79%
07:00 +26°C° 0 mm 4 m/s 748 mmHg 73%
08:00 +27°C° 0 mm 4 m/s 748 mmHg 68%
09:00 +28°C° 0 mm 5 m/s 748 mmHg 63%
10:00 +30°C° 0 mm 5 m/s 748 mmHg 58%
11:00 +30°C° 0.2 mm 5 m/s 748 mmHg 55%
12:00 +32°C° 0.2 mm 5 m/s 748 mmHg 52%
13:00 +33°C° 0.2 mm 5 m/s 748 mmHg 49%
14:00 +32°C° 0.4 mm 4 m/s 748 mmHg 54%
15:00 +30°C° 0.4 mm 4 m/s 748 mmHg 59%
16:00 +29°C° 0.4 mm 4 m/s 748 mmHg 64%
17:00 +27°C° 1.8 mm 4 m/s 748 mmHg 73%
18:00 +25°C° 1.8 mm 4 m/s 749 mmHg 81%
19:00 +22°C° 1.8 mm 4 m/s 749 mmHg 90%
20:00 +21°C° 0.5 mm 3 m/s 750 mmHg 91%
21:00 +21°C° 0.5 mm 2 m/s 750 mmHg 92%
22:00 +21°C° 0.5 mm 1 m/s 750 mmHg 93%
23:00 +21°C° 0.1 mm 1 m/s 750 mmHg 93%
Voir plus

Nous avons besoin de votre consentement

Meteoprog et ses fournisseurs de services peuvent stocker et accéder à des données personnelles telles que des cookies, des identifiants d'appareils ou d'autres technologies similaires sur votre appareil et traiter ces données pour personnaliser le contenu et les publicités, ainsi que pour fournir des fonctionnalités de médias sociaux et analyser le trafic.

  • Stocker et/ou accéder à des informations sur votre appareil

    Des cookies, des identifiants d'appareils ou d'autres informations peuvent être stockés ou accessibles sur votre appareil aux fins indiquées ci-dessus.

  • Annonces et contenus personnalisés, mesure des annonces et des contenus, connaissance de l'audience et développement de produits

    Les annonces et le contenu peuvent être personnalisés en fonction d'un profil. D'autres données peuvent être ajoutées pour mieux personnaliser les annonces et le contenu. Les performances des publicités et du contenu peuvent être mesurées. Il est possible d'obtenir des informations sur le public qui a vu les publicités et le contenu. Ces données peuvent être utilisées pour développer ou améliorer l'expérience de l'utilisateur, les systèmes et les logiciels.

En cliquant sur "J'accepte", vous autorisez l'utilisation de cookies, des identifiants d'appareils, des balises web ou d'autres technologies similaires. Vos paramètres peuvent être modifiés dans le navigateur de votre appareil.

Dans certains cas, des intérêts légitimes peuvent être invoqués plutôt qu'un consentement. Vous pouvez en savoir plus à ce sujet dans notre Politique de confidentialité et de cookies.